Regional Weather Roundup
Issued by NWS

Home | Current Version | Previous Version | Graphics & Text | Print | Product List | Glossary On
Versions: 1 2 3 4 5 6 7 8 9 10 11 12 13 14 15 16 17 18 19 20 21 22 23 24 25 26 27 28 29 30 31 32 33 34 35 36 37 38 39 40 41 42 43 44 45 46 47 48 49 50
000
ASUS43 KFSD 210010
RWRSD

WEATHER ROUNDUP FOR SOUTH DAKOTA
NATIONAL WEATHER SERVICE SIOUX FALLS SD
600 PM CST SAT DEC 20 2014

NOTE: "FAIR" INDICATES FEW OR NO CLOUDS BELOW 12,000 FEET WITH NO
SIGNIFICANT WEATHER AND/OR OBSTRUCTIONS TO VISIBILITY.


SDZ001>005-009-010-012>017-210100-
NORTHWEST AND NORTH CENTRAL SOUTH DAKOTA

CITY           SKY/WX    TMP DP  RH WIND       PRES   REMARKS
BUFFALO          N/A     35  24  64 SW13      29.78F WCI  26
FAITH            N/A     37  27  67 SW8       29.85F
MOBRIDGE       MOCLDY    28  26  92 SE9       29.83S WCI  19
$$

SDZ012>016-024>037-041>051-057-063-072>074-210100-
SOUTHWEST AND SOUTH CENTRAL SOUTH DAKOTA

CITY           SKY/WX    TMP DP  RH WIND       PRES   REMARKS
RAPID CTY ARPT MOCLDY    36  26  67 E3        29.87F
PIERRE         PTCLDY    23  21  92 E3        29.89S
CUSTER         PTCLDY    33  21  61 CALM      29.87S
ELLSWORTH AFB  MOCLDY    39  26  58 CALM      29.87S
PHILIP         PTCLDY    38  26  62 W3        29.88R
PINE RIDGE     MOCLDY    36  25  64 CALM      29.90S
SPEARFISH      FAIR      32  25  74 SW7       29.88S WCI  26
WINNER         FAIR      34  26  72 S3        29.90S
$$

SDZ004>011-016>023-039-040-210100-
NORTHEAST SOUTH DAKOTA

CITY           SKY/WX    TMP DP  RH WIND       PRES   REMARKS
ABERDEEN       CLOUDY    29  26  89 S12       29.92F FOG     WCI  19
WATERTOWN      CLOUDY    29  28  96 S15       29.94S FOG     WCI  18
SISSETON         N/A     31  30  96 S15       29.94F WCI  20
$$

SDZ017-020-022-023-036>040-048>070-210100-
SOUTHEAST SOUTH DAKOTA

CITY           SKY/WX    TMP DP  RH WIND       PRES   REMARKS
SIOUX FALLS    CLOUDY    30  29  96 S12       30.02S FOG     WCI  20
HURON          CLOUDY    30  29  96 S17       29.95S FOG     WCI  18
CHAMBERLAIN    CLEAR     24  22  93 SE6       29.92S WCI  16
MITCHELL       CLOUDY    32  30  92 S13       29.97F FOG     WCI  22
YANKTON        CLOUDY    32  28  86 SE12      30.01F WCI  23
$$

ABBREVIATIONS USED IN REMARKS
   TC - TEMPERATURE IN CELSIUS
  WCI - WIND CHILL INDEX
   HX - HEAT INDEX
  VSB - VISIBILITY



USA.gov is the U.S. government's official web portal to all federal, state and local government web resources and services.